Flag for Norway Weather past 2 weeks in Stavern, Norway

Now
66 °F

Passing clouds.


Feels Like: 66 °F
Forecast: 54 / 71 °F
Wind: 3 mph from Southeast

Location: Torp

Current Time: Jul 1, 2015 at 9:18:59 AM

Latest Report: Jul 1, 2015 at 8:50 AM


Visibility: N/A

Pressure: 30.21 "Hg

Humidity: 68%

Dew point: 55 °F

Location of StavernLocation

Historic Weather in Stavern — Graph

°F

Stavern temperature yesterday

Maximum temperature yesterday: 70 °F (at 1:20 PM)
Minimum temperature yesterday: 54 °F (at 2:50 AM)
Average temperature yesterday: 63 °F

Past Weeks' High & Low Weather Summary

 TemperatureHumidityPressure
High70 °F (Jun 20, 4:20 PM)100% (Jun 17, 1:20 PM)30.21 "Hg (Jun 17, 1:20 PM)
Low46 °F (Jun 25, 3:20 AM)37% (Jun 16, 2:50 PM)29.59 "Hg (Jun 18, 4:50 AM)
Average58 °F73%29.86 "Hg
* Reported Jun 16 7:20 AM — Jul 1 7:50 AM, Stavern, Weather by CustomWeather, © 2015

Note: Actual official high and low records may vary slightly from our data, if they occured in-between our weather recording intervals... More about our weather records

Advertising

Stavern weather history for previous 24 hours

 ConditionsComfort  
Time TempWeatherWind HumidityBarometerVisibility
7:50 AM
Wed, Jul 1
64 °FSunny.2 mph73%30.21 "Hg10 mi
7:20 AM61 °FPassing clouds.3 mph88%30.21 "HgN/A
6:50 AM61 °FSunny.5 mph88%30.21 "Hg10 mi
6:20 AM59 °FSunny.5 mph94%30.18 "Hg10 mi
5:50 AM59 °FSunny.6 mph94%30.18 "Hg10 mi
5:20 AM55 °FCool.6 mph100%30.18 "Hg6 mi
4:50 AM57 °FPassing clouds.1 mph100%30.18 "HgN/A
4:20 AM59 °FOvercast.3 mph94%30.18 "HgN/A
3:50 AM59 °FOvercast.7 mph94%30.18 "HgN/A
3:20 AM55 °FPassing clouds.5 mph94%30.18 "HgN/A
2:50 AM57 °FPassing clouds.6 mph88%30.18 "HgN/A
2:20 AM59 °FPassing clouds.5 mph77%30.18 "HgN/A
1:50 AM57 °FPassing clouds.2 mph72%30.18 "HgN/A
1:20 AM59 °FCool.1 mph68%30.18 "HgN/A
12:50 AM61 °FPassing clouds.5 mph63%30.18 "HgN/A
12:20 AM63 °FOvercast.6 mph56%30.15 "HgN/A
11:50 PM
Tue, Jun 30
61 °FOvercast.6 mph63%30.15 "HgN/A
11:20 PM63 °FOvercast.6 mph59%30.15 "HgN/A
10:50 PM63 °FSunny.6 mph59%30.15 "Hg10 mi
10:20 PM63 °FSunny.8 mph59%30.15 "Hg10 mi
9:50 PM64 °FSunny.6 mph56%30.15 "Hg10 mi
9:20 PM64 °FSunny.7 mph56%30.15 "Hg10 mi
8:50 PM66 °FSunny.6 mph52%30.15 "Hg10 mi
8:20 PM66 °FSunny.6 mph52%30.12 "Hg10 mi
7:50 PM66 °FSunny.9 mph56%30.12 "Hg10 mi
6:50 PM68 °FSunny.10 mph53%30.12 "Hg10 mi
6:20 PM68 °FPassing clouds.12 mph56%30.12 "HgN/A
5:50 PM66 °FPassing clouds.12 mph56%30.12 "HgN/A
4:50 PM68 °FScattered clouds.12 mph60%30.12 "HgN/A
4:20 PM70 °FScattered clouds.13 mph57%30.12 "HgN/A
3:50 PM70 °FPassing clouds.8 mph53%30.12 "HgN/A
2:50 PM68 °FScattered clouds.6 mph56%30.12 "HgN/A
2:20 PM70 °FSunny.1 mph50%30.09 "Hg10 mi
1:50 PM68 °FScattered clouds.3 mph53%30.12 "HgN/A
1:20 PM70 °FScattered clouds.5 mph50%30.09 "HgN/A
12:50 PM68 °FPassing clouds.6 mph53%30.09 "HgN/A
12:20 PM68 °FPassing clouds.7 mph53%30.09 "HgN/A
11:50 AM68 °FPassing clouds.8 mph56%30.09 "HgN/A
11:20 AM66 °FPassing clouds.9 mph56%30.09 "HgN/A
10:50 AM66 °FPassing clouds.8 mph60%30.09 "HgN/A
10:20 AM64 °FPassing clouds.10 mph60%30.09 "HgN/A
9:50 AM64 °FPassing clouds.13 mph60%30.07 "HgN/A
9:20 AM63 °FSunny.14 mph59%30.07 "Hg10 mi
Weather by CustomWeather, © 2015

See weather overviewHow to use our weather pages